Date String (YYYY-MM-DD hh:mm:ss) UTC,Instrument flags,Ambient pressure (hPa),Sample flow (lpm),Bypass flow (lpm),Sample temperature (°C),Ambient temperature (°C),ASC tube jacket temperature (°C),LED temperature (°C),Box temperature (°C),Sample RH (%),Span deviation,Mass concentration (μg/m³),Mass concentration (μg/m³),Mass concentration (μg/m³)
DateTimeUTC,F1_M11,P_M11,Q1_M11,Q2_M11,T1_M11,T2_M11,T3_M11,T4_M11,T5_M11,U1_M11,ZSPAN_M11,X0_M11,X2_M11,X1_M11
2022-06-04 07:00:00,,0823.2,5.00,0.00,30.0,28.8,00.0,39.0,31.9,20.9,0000.0,0009.88,0005.54,0004.79
2022-06-04 07:01:00,,0823.2,5.00,0.00,30.0,28.8,00.0,39.0,31.9,20.9,0000.0,0009.99,0005.54,0004.79
2022-06-04 07:02:00,,0823.2,5.00,0.00,30.0,28.8,00.0,39.0,31.9,21.0,0000.0,0010.04,0005.56,0004.80
2022-06-04 07:03:00,,0823.2,4.99,0.00,30.0,28.8,00.0,39.0,31.9,20.9,0000.0,0010.12,0005.60,0004.81
2022-06-04 07:04:00,,0823.2,5.00,0.00,30.0,28.8,00.0,39.0,31.9,21.0,0000.0,0010.09,0005.61,0004.82
2022-06-04 07:05:00,,0823.2,5.00,0.00,30.0,28.8,00.0,39.0,31.9,21.0,0000.0,0010.03,0005.57,0004.81
2022-06-04 07:06:00,,0823.2,5.00,0.00,30.0,28.8,00.0,39.0,31.9,21.0,0000.0,0009.86,0005.55,0004.82
2022-06-04 07:07:00,,0823.2,5.00,0.00,30.0,28.8,00.0,39.0,31.9,21.0,0000.0,0010.24,0005.58,0004.83
2022-06-04 07:08:00,,0823.2,5.00,0.00,30.0,28.8,00.0,39.0,31.9,21.0,0000.0,0010.10,0005.54,0004.84
2022-06-04 07:09:00,,0823.2,5.00,0.00,30.0,28.8,00.0,39.0,31.8,21.1,0000.0,0010.13,0005.56,0004.86
2022-06-04 07:10:00,,0823.2,5.00,0.00,30.0,28.8,00.0,39.0,31.9,21.1,0000.0,0010.21,0005.56,0004.87
2022-06-04 07:11:00,,0823.2,4.99,0.00,30.0,28.8,00.0,39.0,31.9,21.0,0000.0,0009.96,0005.55,0004.88
2022-06-04 07:12:00,,0823.2,5.00,0.00,30.0,28.7,00.0,39.0,31.7,21.0,0000.0,0009.76,0005.53,0004.88
2022-06-04 07:13:00,,0823.3,5.00,0.00,29.8,28.4,00.0,38.9,31.3,21.2,0000.0,0009.65,0005.53,0004.88
2022-06-04 07:14:00,,0823.2,5.00,0.00,29.5,28.0,00.0,38.9,30.9,21.5,0000.0,0009.51,0005.49,0004.88
2022-06-04 07:15:00,,0823.1,4.99,0.00,29.3,27.6,00.0,38.8,30.5,21.8,0000.0,0009.57,0005.50,0004.87
2022-06-04 07:16:00,,0823.2,5.00,0.00,29.1,27.1,00.0,38.7,30.2,22.0,0000.0,0009.53,0005.49,0004.86
2022-06-04 07:17:00,,0823.1,5.00,0.00,28.8,26.6,00.0,38.5,29.9,22.3,0000.0,0009.61,0005.46,0004.84
2022-06-04 07:18:00,,0823.1,4.99,0.00,28.6,26.2,00.0,38.4,29.6,22.6,0000.0,0009.16,0005.42,0004.81
2022-06-04 07:19:00,,0823.1,5.01,0.00,28.4,25.9,00.0,38.3,29.5,22.9,0000.0,0009.34,0005.40,0004.79
2022-06-04 07:20:00,,0823.1,5.00,0.00,28.3,25.9,00.0,38.2,29.5,23.1,0000.0,0009.61,0005.34,0004.75
2022-06-04 07:21:00,,0823.2,4.99,0.00,28.2,25.9,00.0,38.0,29.6,23.1,0000.0,0009.51,0005.31,0004.70
2022-06-04 07:22:00,,0823.1,5.00,0.00,28.2,26.0,00.0,38.0,29.7,23.2,0000.0,0009.45,0005.30,0004.67
2022-06-04 07:23:00,,0823.1,5.00,0.00,28.2,26.1,00.0,37.9,29.8,23.2,0000.0,0010.13,0005.29,0004.64
2022-06-04 07:24:00,,0823.1,4.99,0.00,28.2,26.3,00.0,37.8,29.8,23.2,0000.0,0010.49,0005.27,0004.61
2022-06-04 07:25:00,,0823.0,5.00,0.00,28.2,26.4,00.0,37.8,29.9,23.1,0000.0,0010.53,0005.25,0004.58
2022-06-04 07:26:00,,0823.1,5.01,0.00,28.2,26.5,00.0,37.7,29.9,23.1,0000.0,0010.44,0005.22,0004.56
2022-06-04 07:27:00,,0823.0,5.00,0.00,28.3,26.6,00.0,37.7,30.0,23.1,0000.0,0010.48,0005.23,0004.56
2022-06-04 07:28:00,,0822.9,4.98,0.00,28.3,26.8,00.0,37.6,30.0,23.1,0000.0,0010.61,0005.27,0004.55
2022-06-04 07:29:00,,0822.9,5.01,0.00,28.3,26.9,00.0,37.6,30.1,23.1,0000.0,0010.95,0005.28,0004.55
2022-06-04 07:30:00,,0822.9,5.00,0.00,28.3,27.0,00.0,37.6,30.1,23.0,0000.0,0010.77,0005.31,0004.55
2022-06-04 07:31:00,,0823.0,5.00,0.00,28.3,27.1,00.0,37.6,30.1,23.0,0000.0,0010.43,0005.31,0004.55
2022-06-04 07:32:00,,0823.0,5.00,0.00,28.4,27.1,00.0,37.5,30.2,22.9,0000.0,0010.56,0005.34,0004.57
2022-06-04 07:33:00,,0822.9,4.99,0.00,28.4,27.2,00.0,37.5,30.2,22.9,0000.0,0010.73,0005.35,0004.57
2022-06-04 07:34:00,,0822.9,5.00,0.00,28.4,27.3,00.0,37.5,30.2,22.9,0000.0,0010.07,0005.32,0004.56
2022-06-04 07:35:00,,0822.9,5.00,0.00,28.4,27.3,00.0,37.5,30.3,22.8,0000.0,0009.64,0005.28,0004.55
2022-06-04 07:36:00,,0822.9,5.01,0.00,28.4,27.3,00.0,37.5,30.3,22.8,0000.0,0010.11,0005.27,0004.57
2022-06-04 07:37:00,,0822.9,5.01,0.00,28.5,27.4,00.0,37.5,30.3,22.7,0000.0,0011.04,0005.26,0004.58
2022-06-04 07:38:00,,0823.0,5.00,0.00,28.5,27.4,00.0,37.5,30.4,22.7,0000.0,0011.72,0005.28,0004.59
2022-06-04 07:39:00,,0823.0,5.00,0.00,28.5,27.5,00.0,37.5,30.4,22.7,0000.0,0011.57,0005.26,0004.60
2022-06-04 07:40:00,,0823.0,5.00,0.00,28.5,27.5,00.0,37.5,30.4,22.7,0000.0,0011.60,0005.30,0004.63
2022-06-04 07:41:00,,0823.0,5.00,0.00,28.6,27.5,00.0,37.5,30.4,22.6,0000.0,0012.39,0005.32,0004.65
2022-06-04 07:42:00,,0822.9,5.00,0.00,28.6,27.5,00.0,37.5,30.5,22.7,0000.0,0013.12,0005.39,0004.67
2022-06-04 07:43:00,,0822.8,5.00,0.00,28.6,27.6,00.0,37.5,30.5,22.7,0000.0,0013.11,0005.41,0004.69
2022-06-04 07:44:00,,0822.8,5.00,0.00,28.6,27.6,00.0,37.5,30.5,22.6,0000.0,0013.15,0005.46,0004.71
2022-06-04 07:45:00,,0822.8,5.01,0.00,28.6,27.6,00.0,37.5,30.5,22.6,0000.0,0013.30,0005.54,0004.74
2022-06-04 07:46:00,,0822.7,5.00,0.00,28.6,27.6,00.0,37.5,30.5,22.6,0000.0,0013.37,0005.59,0004.78
2022-06-04 07:47:00,,0822.7,5.00,0.00,28.6,27.6,00.0,37.5,30.5,22.5,0000.0,0013.44,0005.64,0004.79
2022-06-04 07:48:00,,0822.7,4.99,0.00,28.7,27.6,00.0,37.6,30.6,22.4,0000.0,0013.28,0005.69,0004.80
2022-06-04 07:49:00,,0822.6,5.01,0.00,28.7,27.6,00.0,37.6,30.6,22.4,0000.0,0012.49,0005.73,0004.81
2022-06-04 07:50:00,,0822.7,5.00,0.00,28.7,27.6,00.0,37.6,30.6,22.3,0000.0,0012.45,0005.73,0004.83
2022-06-04 07:51:00,,0822.7,5.00,0.00,28.7,27.6,00.0,37.6,30.6,22.3,0000.0,0012.42,0005.67,0004.82
2022-06-04 07:52:00,,0822.7,5.00,0.00,28.7,27.6,00.0,37.6,30.6,22.3,0000.0,0012.03,0005.64,0004.81
2022-06-04 07:53:00,,0822.6,5.01,0.00,28.7,27.6,00.0,37.6,30.6,22.2,0000.0,0011.35,0005.64,0004.82
2022-06-04 07:54:00,,0822.6,5.00,0.00,28.7,27.6,00.0,37.6,30.6,22.2,0000.0,0011.41,0005.65,0004.84
2022-06-04 07:55:00,,0822.6,5.00,0.00,28.7,27.6,00.0,37.6,30.6,22.2,0000.0,0011.23,0005.61,0004.85
2022-06-04 07:56:00,,0822.6,5.01,0.00,28.8,27.7,00.0,37.6,30.7,22.1,0000.0,0011.12,0005.60,0004.87
2022-06-04 07:57:00,,0822.5,4.99,0.00,28.8,27.7,00.0,37.6,30.7,22.1,0000.0,0011.12,0005.60,0004.86
2022-06-04 07:58:00,,0822.5,5.00,0.00,28.8,27.7,00.0,37.6,30.7,22.1,0000.0,0010.65,0005.60,0004.87
2022-06-04 07:59:00,,0822.5,4.99,0.00,28.8,27.7,00.0,37.6,30.7,22.2,0000.0,0009.93,0005.57,0004.87
